Regional Weather Roundup
Issued by NWS

Home | Current Version | Previous Version | Text Only | Print | Product List | Glossary Off
Versions: 1 2 3 4 5 6 7 8 9 10 11 12 13 14 15 16 17 18 19 20 21 22 23 24 25 26 27 28 29 30 31 32 33 34 35 36 37 38 39 40 41 42 43 44 45 46 47 48 49 50

000
ASUS43 KFSD 310402
RWRSD

WEATHER ROUNDUP FOR SOUTH DAKOTA
NATIONAL WEATHER SERVICE SIOUX FALLS SD
1100 PM CDT THU OCT 30 2014

NOTE: "FAIR" INDICATES FEW OR NO CLOUDS BELOW 12,000 FEET WITH NO
SIGNIFICANT WEATHER AND/OR OBSTRUCTIONS TO VISIBILITY.


SDZ001>005-009-010-012>017-310500-
NORTHWEST AND NORTH CENTRAL SOUTH DAKOTA

CITY           SKY/WX    TMP DP  RH WIND       PRES   REMARKS
BUFFALO          N/A     34  28  79 E12       30.39S WCI  25
FAITH            N/A     33  28  81 NE13      30.50R WCI  24
MOBRIDGE       MOCLDY    27  22  81 N8        30.55R WCI  19
$$

SDZ012>016-024>037-041>051-057-063-072>074-310500-
SOUTHWEST AND SOUTH CENTRAL SOUTH DAKOTA

CITY           SKY/WX    TMP DP  RH WIND       PRES   REMARKS
RAPID CTY ARPT CLOUDY    33  30  88 CALM      30.48R
PIERRE         CLOUDY    34  26  72 NE14      30.54R WCI  25
CUSTER         FOG       29  27  92 NE6       30.40R VSB 1   WCI  23
ELLSWORTH AFB  CLOUDY    34  31  88 S5        30.47R WCI  30
PHILIP         CLOUDY    32  28  85 NE6       30.52R WCI  26
PINE RIDGE     CLEAR     27  24  89 E7        30.46R WCI  19
SPEARFISH      FAIR      28  27  93 SE3       30.42S
WINNER         MOCLDY    32  28  85 N8        30.51R WCI  25
$$

SDZ004>011-016>023-039-040-310500-
NORTHEAST SOUTH DAKOTA

CITY           SKY/WX    TMP DP  RH WIND       PRES   REMARKS
ABERDEEN       CLEAR     25  20  81 N9        30.55R WCI  15
WATERTOWN      CLEAR     26  21  81 N12       30.48R WCI  16
SISSETON         N/A     26  22  84 N10       30.52R WCI  16
$$

SDZ017-020-022-023-036>040-048>070-310500-
SOUTHEAST SOUTH DAKOTA

CITY           SKY/WX    TMP DP  RH WIND       PRES   REMARKS
SIOUX FALLS    MOCLDY    32  21  64 N22G36    30.47R WCI  19
HURON          CLEAR     29  20  69 N9        30.54R WCI  20
CHAMBERLAIN    CLOUDY    33  26  73 NE12G20   30.53R WCI  25
MITCHELL       CLOUDY    36  25  64 N21       30.52R
YANKTON        CLOUDY    37  27  65 N16       30.47R
$$

ABBREVIATIONS USED IN REMARKS
   TC - TEMPERATURE IN CELSIUS
  WCI - WIND CHILL INDEX
   HX - HEAT INDEX
  VSB - VISIBILITY




USA.gov is the U.S. government's official web portal to all federal, state and local government web resources and services.